Regional Weather Roundup
Issued by NWS Mt. Holly, NJ

Current Version | Previous Version | Text Only | Print | Product List | Glossary On
Versions: 1 2 3 4 5 6 7 8 9 10 11 12 13 14 15 16 17 18 19 20 21 22 23 24 25 26 27 28
000
ASUS41 KPHI 250610
RWRPHI

REGIONAL WEATHER ROUNDUP
NATIONAL WEATHER SERVICE MOUNT HOLLY NJ
200 AM EDT SUN SEP 25 2022

NOTE:  "FAIR" INDICATES FEW OR NO CLOUDS BELOW 12,000 FEET WITH NO
SIGNIFICANT WEATHER AND/OR OBSTRUCTIONS TO VISIBILITY.

 * = STATION DOES NOT REPORT PRECIPITATION (E.G. RAIN, SNOW, ETC.)
        OR FOG.

NJZ015>026-250700-
SOUTHERN NEW JERSEY

CITY           SKY/WX    TMP DP  RH WIND       PRES   REMARKS
POMONA         MOCLDY    58  49  72 S5        29.91F
6HR MIN TEMP:  58; 6HR MAX TEMP:  62;

WILDWOOD*      CLOUDY    59  52  77 CALM      29.92F
MILLVILLE      CLOUDY    58  53  84 CALM      29.91F
WRIGHTSTOWN    CLOUDY    57  48  72 SW6       29.90F
MOUNT HOLLY    CLOUDY    58  49  72 CALM      29.90F
TRENTON        CLOUDY    58  48  69 SW3       29.89F
6HR MIN TEMP:  54; 6HR MAX TEMP:  62;


$$
NJZ001>014-250700-
NORTHERN NEW JERSEY

CITY           SKY/WX    TMP DP  RH WIND       PRES   REMARKS
SUSSEX         MOCLDY    48  47  96 CALM      29.89F
ANDOVER*         N/A     51  47  86 CALM      29.89S
MORRISTOWN     MOCLDY    50  48  93 CALM      29.89F
NEWARK         CLOUDY    59  44  57 SW7       29.89S
TETERBORO      MOCLDY    54  46  74 CALM      29.88S
CALDWELL       CLOUDY    55  44  66 CALM      29.89F
SOMERVILLE     MOCLDY    49  47  93 CALM      29.88F
ALLAIRE*       CLOUDY    56  48  74 S5        29.91F

$$
PAZ043-044-047-054-055-060>062-066>071-250700-
EASTERN PENNSYLVANIA

CITY           SKY/WX    TMP DP  RH WIND       PRES   REMARKS
PHILADELPHIA   CLOUDY    63  52  67 S8        29.90F
6HR MIN TEMP:  62; 6HR MAX TEMP:  66;

NORTH PHILA    CLOUDY    61  50  67 SE3       29.90F
BLUE BELL*     CLOUDY    57  52  83 CALM      29.90F
DOYLESTOWN     CLOUDY    58  47  66 CALM      29.89F
QUAKERTOWN*    CLOUDY    54  52  94 CALM      29.90S
PERKASIE*      CLOUDY    54  52  94 CALM      29.90F
POTTSTOWN      CLOUDY    56  49  77 CALM      29.91F
LANCASTER      CLOUDY    58  53  84 E3        29.88F
COATESVILLE    MOCLDY    57  52  82 CALM      29.91S
READING        CLOUDY    58  51  78 CALM      29.87F
6HR MIN TEMP:  54; 6HR MAX TEMP:  61;

ALLENTOWN      CLOUDY    51  46  83 CALM      29.89F
6HR MIN TEMP:  48; 6HR MAX TEMP:  57;

QN CITY/ALNTWN CLOUDY    54  48  82 CALM      29.90F
MOUNT POCONO   CLOUDY    49  44  83 W5        29.88F
6HR MIN TEMP:  44; 6HR MAX TEMP:  51;

HAZLETON       CLOUDY    48  46  93 CALM      29.91F
LEHIGHTON      CLOUDY    46  43  87 CALM      29.90F
WILKES BARRE   CLOUDY    53  47  79 CALM      29.87F

$$
DEZALL-MDZ008-012-015-019-020-250700-
DELAWARE AND EASTERN MARYLAND

CITY           SKY/WX    TMP DP  RH WIND       PRES   REMARKS
WILMINGTON     CLOUDY    61  50  67 S3        29.90F
6HR MIN TEMP:  60; 6HR MAX TEMP:  62;

DOVER          MOCLDY    56  48  75 CALM      29.89F
CHESWOLD       CLOUDY    55  50  82 CALM      29.90F
GEORGETOWN     MOCLDY    55  49  80 SW3       29.91F
6HR MIN TEMP:  50; 6HR MAX TEMP:  58;

PATUXENT       CLOUDY    67  50  54 SW10      29.90F
OCEAN CITY     MOCLDY    61  55  81 W8        29.93F
WALLOPS ISLAND MOCLDY    60  52  74 SW6       29.93F
SALISBURY      MOCLDY    58  53  84 CALM      29.91F

$$
PAZ001-021-NYZ056-072-MDZ011-DCZ001-250700-
OTHER NEARBY LOCATIONS

CITY           SKY/WX    TMP DP  RH WIND       PRES   REMARKS
HARRISBURG     CLOUDY    59  51  75 S5        29.87F
STATE COLLEGE  MOCLDY    55  49  78 CALM      29.85F
WILLIAMSPORT   MOCLDY    54  49  83 CALM      29.85S
BINGHAMTON     CLOUDY    53  44  71 SW6       29.84F
NEW YORK CITY  MOCLDY    62  45  53 VRB3      29.91S
BALTIMORE      CLOUDY    61  49  64 CALM      29.88F
WASHINGTON DC  CLOUDY    62  54  74 S6        29.89F

$$



USA.gov is the U.S. government's official web portal to all federal, state and local government web resources and services.